Location: Krakow
(50.0830°N, 19.9170°E)
Time: 16:52:23
(UTC+01:00)

Transit 2A Rocket - Pass Details

Date: 11 December 2023
Orbit: 590 x 905 km, 66.7° (Epoch: 03 March)

Event Time Altitude Azimuth Distance (km) Brightness Sun altitude
Exits shadow 05:33:11 10° 224° (SW) 2,002 6.9 -17.4°
Drops below altitude 10° 05:33:20 10° 222° (SW) 2,032 6.9 -17.4°
Sets 05:36:46 0° 197° (SSW) 3,000 8.1 -16.9°
